Regional Weather Roundup
Issued by NWS

Home | Current Version | Previous Version | Text Only | Print | Product List | Glossary On
Versions: 1 2 3 4 5 6 7 8 9 10 11 12 13 14 15 16 17 18 19 20 21 22 23 24 25 26 27 28 29 30 31 32 33 34 35 36 37 38 39 40 41 42 43 44 45 46 47 48 49 50
000
ASUS45 KBOI 251110
RWRID
WEATHER ROUNDUP FOR IDAHO
NATIONAL WEATHER SERVICE BOISE ID
400 AM MST SUN JAN 25 2015

NOTE: "FAIR" INDICATES FEW OR NO CLOUDS BELOW 12000 FEET
WITH NO SIGNIFICANT WEATHER AND/OR OBSTRUCTIONS TO VISIBILITY

IDZ012-014-251200-
SOUTHWEST IDAHO


CITY           SKY/WX    TMP DP  RH WIND       PRES   REMARKS
BOISE          CLEAR     31  27  85 SE6       30.46F WCI  25
CALDWELL       PTCLDY    27  19  74 CALM      30.49F
MOUNTAIN HOME  CLEAR     28  26  92 E6        30.45F WCI  22
$$

IDZ016-017-251200-
SOUTHCENTRAL IDAHO


CITY           SKY/WX    TMP DP  RH WIND       PRES   REMARKS
BURLEY         CLOUDY    31  28  89 N3        30.42F
JEROME         CLEAR     26  23  88 NE9       30.43F WCI  17
TWIN FALLS     CLEAR     29  25  85 S3        30.42F
$$

IDZ019>023-251200-
SOUTHEAST IDAHO


CITY           SKY/WX    TMP DP  RH WIND       PRES   REMARKS
IDAHO FALLS    CLOUDY    27  25  92 N6        30.44F FOG     WCI  20
POCATELLO      CLOUDY    30  30 100 NE3       30.44F
REXBURG        CLOUDY    25  25 100 CALM      30.43F FOG
$$

IDZ006-010-011-018-031-032-251200-
CENTRAL IDAHO MOUNTAINS


CITY           SKY/WX    TMP DP  RH WIND       PRES   REMARKS
MCCALL         CLOUDY    34  32  92 CALM      30.40F
HAILEY         CLEAR     27  23  86 NW12      30.40F WCI  16
STANLEY          N/A     25  22  88 SE5       30.43F WCI  19
SALMON         PTCLDY    28  25  86 CALM      30.37F
CHALLIS        CLEAR     26  24  92 CALM      30.37F
$$

IDZ002-004-006-007-026-251200-
NORTHERN IDAHO


CITY           SKY/WX    TMP DP  RH WIND       PRES   REMARKS
LEWISTON       CLOUDY    49  39  68 CALM      30.28S
LOWELL           N/A     36  34  92 NW3       30.38R
COEUR D`ALENE  CLOUDY    43  41  93 S9        30.21S
MULLAN PASS    FOG       38  38 100 W8        30.22F VSB 1/4 WCI  32
$$



USA.gov is the U.S. government's official web portal to all federal, state and local government web resources and services.